User: anonymous   Login
Location: Newark
(15.4608°S, 41.1635°W)
Time: 00:47:08
(UTC+00:00)
Language:

SR - Orbit

View from above orbital plane
View from above orbital plane
View from above satellite
View from above satellite

Ground track
Ground track

The orbit data is extracted from the following two-line orbital elements,

1 00046U 60007B   21211.49714642  .00000106  00000-0  43901-4 0  9995
2 00046  66.6908  23.8543 0211344 189.0454 170.6824 14.49420280198244
Epoch (UTC): 30 July 2021 11:55:53
Eccentricity: 0.0211344
inclination: 66.6908°
perigee height: 577 km
apogee height: 878 km
right ascension of ascending node: 23.8543°
argument of perigee: 189.0454°
revolutions per day: 14.49420280
mean anomaly at epoch: 170.6824°
orbit number at epoch: 19824

The dashed part of the orbit path shows where the satellite is in the earth's shadow,  

DLR